Regional Weather Roundup
Issued by NWS

Home | Current Version | Previous Version | Graphics & Text | Print | Product List | Glossary On
Versions: 1 2 3 4 5 6 7 8 9 10 11 12 13 14 15 16 17 18 19 20 21 22 23 24 25 26 27 28 29 30 31 32 33 34 35 36 37 38 39 40 41 42 43 44 45 46 47 48 49 50
000
ASUS43 KLMK 041010
RWRKY
KENTUCKY REGIONAL WEATHER ROUNDUP
NATIONAL WEATHER SERVICE LOUISVILLE KY
600 AM EDT TUE AUG 04 2015

NOTE "FAIR" INDICATES FEW OR NO CLOUDS BELOW 12,000 FEET
WITH NO SIGNIFICANT WEATHER AND/OR OBSTRUCTIONS TO VISIBILITY.

KYZ001>023-026-027-061>063-070>075-041100-
WESTERN AND SOUTH CENTRAL KENTUCKY

CITY           SKY/WX    TMP DP  RH WIND       PRES   REMARKS
PADUCAH        CLEAR     73  70  90 CALM      29.94R
HENDERSON      MOCLDY    70  66  88 SW3       29.94R
OWENSBORO      PTCLDY    72  70  93 CALM      29.96R
HOPKINSVILLE   CLEAR     73  70  89 SW3       29.96R
BOWLING GREEN  PTCLDY    73  69  87 CALM      29.96S
GLASGOW        CLEAR    N/A N/A N/A CALM      29.97R FOG
$$

KYZ024-025-028>034-038-045-046-053-041100-
NORTH CENTRAL KENTUCKY

CITY           SKY/WX    TMP DP  RH WIND       PRES   REMARKS
LOUISVILLE/SDF MOCLDY    77  66  68 NE3       29.94S
LOUISVILLE/LOU PTCLDY    74  67  78 CALM      29.95S
FORT KNOX      PTCLDY    68  67  94 CALM      29.95R
$$

KYZ035>037-039>044-047>052-055>060-089>105-041100-
NORTHEAST KENTUCKY

CITY           SKY/WX    TMP DP  RH WIND       PRES   REMARKS
LEXINGTON      CLEAR     68  65  90 S5        29.97R
COVINGTON      CLEAR     69  65  86 CALM      29.95R
FRANKFORT      PTCLDY    68  66  93 CALM      29.95R
$$

KYZ054-064>069-076>088-106>120-041100-
SOUTHEAST KENTUCKY

CITY           SKY/WX    TMP DP  RH WIND       PRES   REMARKS
JACKSON        PTCLDY    66  64  93 CALM      29.98S
LONDON         CLEAR     69  64  84 CALM      30.00S
SOMERSET       PTCLDY    70  70 100 CALM      30.00R
MIDDLESBORO    PTCLDY    68  67  97 CALM      30.02R
MONTICELLO     SUNNY     68  68 100 CALM      30.02R FOG
$$




USA.gov is the U.S. government's official web portal to all federal, state and local government web resources and services.